GW0915 Weather Reports


time (UTC)temp
C
wind
direction
speed
KPH
gust
KPH
rain 1hr
cm
rain 24hr
cm
rain mn
cm
humidity
%
barometer
mb
20260503224836 14 256 3.2 4.8 0.00 0.00 0.00 38 1006.9
20260503224333 14 247 1.6 4.8 0.00 0.00 0.00 40 1006.8
20260503223831 15 257 4.8 4.8 0.00 0.00 0.00 38 1007.0
20260503223329 15 244 4.8 9.7 0.00 0.00 0.00 38 1007.0
20260503222824 15 252 4.8 8.0 0.00 0.00 0.00 35 1007.0
20260503222323 15 260 4.8 4.8 0.00 0.00 0.00 38 1006.9
20260503221820 15 229 1.6 4.8 0.00 0.00 0.00 39 1006.9
20260503221320 15 237 4.8 4.8 0.00 0.00 0.00 36 1007.0
20260503220815 15 218 3.2 9.7 0.00 0.00 0.00 37 1007.3
20260503220312 15 250 1.6 4.8 0.00 0.00 0.00 38 1007.0
20260503215808 15 237 8.0 9.7 0.00 0.00 0.00 37 1007.2
20260503215306 15 259 3.2 4.8 0.00 0.00 0.00 40 1007.0
20260503214804 15 239 1.6 3.2 0.00 0.00 0.00 41 1006.9
20260503214300 15 230 1.6 4.8 0.00 0.00 0.00 37 1006.9
20260503213758 15 245 1.6 3.2 0.00 0.00 0.00 37 1007.2
20260503213255 15 228 3.2 8.0 0.00 0.00 0.00 40 1006.8
20260503212752 15 171 4.8 9.7 0.00 0.00 0.00 40 1007.3
20260503212250 15 219 3.2 4.8 0.00 0.00 0.00 39 1007.0
20260503211747 15 249 6.4 9.7 0.00 0.00 0.00 39 1007.2
20260503211243 15 240 4.8 4.8 0.00 0.00 0.00 37 1007.5
20260503210738 15 261 1.6 4.8 0.00 0.00 0.00 40 1007.2
20260503210237 15 245 4.8 4.8 0.00 0.00 0.00 35 1007.2
20260503205731 15 231 4.8 4.8 0.00 0.00 0.00 35 1007.3
20260503205228 15 212 1.6 8.0 0.00 0.00 0.00 38 1007.2
20260503204724 15 210 3.2 8.0 0.00 0.00 0.00 37 1007.0
20260503204222 15 213 3.2 8.0 0.00 0.00 0.00 38 1007.2
20260503203719 15 254 3.2 8.0 0.00 0.00 0.00 35 1007.2
20260503203217 16 271 4.8 9.7 0.00 0.00 0.00 35 1007.0
20260503202714 16 254 3.2 9.7 0.00 0.00 0.00 33 1007.3
20260503202212 15 222 4.8 8.0 0.00 0.00 0.00 34 1007.4
20260503201709 16 236 3.2 4.8 0.00 0.00 0.00 37 1007.7
20260503201207 15 186 4.8 4.8 0.00 0.00 0.00 35 1007.5
20260503200703 15 239 3.2 9.7 0.00 0.00 0.00 38 1007.7
20260503200159 15 221 4.8 8.0 0.00 0.00 0.00 35 1007.6
20260503195656 15 269 4.8 4.8 0.00 0.00 0.00 35 1007.9
20260503195153 15 205 4.8 8.0 0.00 0.00 0.00 37 1007.8
20260503194650 15 265 1.6 4.8 0.00 0.00 0.00 37 1008.1
20260503194145 15 257 6.4 8.0 0.00 0.00 0.00 36 1008.1
20260503193643 15 264 4.8 4.8 0.00 0.00 0.00 39 1008.0
20260503193138 16 280 4.8 8.0 0.00 0.00 0.00 37 1008.1
20260503192634 15 250 4.8 8.0 0.00 0.00 0.00 38 1008.4
20260503192130 15 259 3.2 9.7 0.00 0.00 0.00 37 1008.5
20260503191627 15 270 4.8 8.0 0.00 0.00 0.00 33 1008.5
20260503191124 15 261 4.8 12.9 0.00 0.00 0.00 34 1008.4
20260503190621 16 247 4.8 9.7 0.00 0.00 0.00 33 1008.8
20260503190118 16 270 3.2 9.7 0.00 0.00 0.00 34 1008.6
20260503185614 16 261 4.8 9.7 0.00 0.00 0.00 35 1008.7
20260503185114 16 250 4.8 4.8 0.00 0.00 0.00 33 1008.6
20260503184610 15 205 6.4 8.0 0.00 0.00 0.00 38 1008.8
20260503184106 15 273 6.4 9.7 0.00 0.00 0.00 33 1008.9
20260503183603 15 250 4.8 11.3 0.00 0.00 0.00 36 1008.9
20260503183101 15 274 6.4 8.0 0.00 0.00 0.00 35 1009.0
20260503182559 15 257 4.8 8.0 0.00 0.00 0.00 39 1009.1
20260503182057 15 254 3.2 8.0 0.00 0.00 0.00 37 1009.2
20260503181553 16 289 8.0 11.3 0.00 0.00 0.00 35 1009.0
20260503181049 16 293 1.6 8.0 0.00 0.00 0.00 39 1009.0
20260503180547 15 252 4.8 8.0 0.00 0.00 0.00 36 1009.3
20260503180044 15 275 8.0 11.3 0.00 0.00 0.00 37 1009.2
20260503175541 15 282 4.8 8.0 0.00 0.00 0.00 36 1009.3
20260503175039 15 283 6.4 8.0 0.00 0.00 0.00 37 1009.5
20260503174536 15 256 4.8 8.0 0.00 0.00 0.00 36 1009.4
20260503174032 15 296 6.4 8.0 0.00 0.00 0.00 36 1009.5
20260503173527 15 283 6.4 4.8 0.00 0.00 0.00 39 1009.6
20260503173024 15 258 4.8 8.0 0.00 0.00 0.00 37 1009.8
20260503172521 15 273 4.8 8.0 0.00 0.00 0.00 40 1009.7
20260503172018 15 267 4.8 8.0 0.00 0.00 0.00 38 1010.0
20260503171515 15 281 3.2 9.7 0.00 0.00 0.00 38 1009.9
20260503171012 15 254 6.4 9.7 0.00 0.00 0.00 40 1010.0
20260503170508 15 232 4.8 9.7 0.00 0.00 0.00 37 1010.2
20260503150901 12 247 1.6 8.0 0.00 0.00 0.00 40 1011.1
20260503150357 12 267 4.8 4.8 0.00 0.00 0.00 41 1011.3
20260503131250 8 222 1.6 4.8 0.00 0.00 0.00 49 1012.1
20260503130748 8 232 1.6 3.2 0.00 0.00 0.00 50 1012.2
20260503130245 8 236 4.8 4.8 0.00 0.00 0.00 51 1011.8
20260503120211 4 302 0.0 0.0 0.00 0.00 0.00 70 1012.1
20260503110638 2 308 0.0 0.0 0.00 0.00 0.00 78 1011.8
20260503110136 2 309 0.0 0.0 0.00 0.00 0.00 79 1011.7
20260503081452 2 321 0.0 0.0 0.00 0.00 0.00 85 1011.3
20260503080949 1 321 0.0 0.0 0.00 0.00 0.00 85 1011.3
20260503080445 1 321 0.0 0.0 0.00 0.00 0.00 84 1011.3
20260503072922 2 321 0.0 0.0 0.00 0.00 0.00 84 1011.4
20260503072419 2 321 0.0 0.0 0.00 0.00 0.00 84 1011.3
20260503071916 2 321 0.0 0.0 0.00 0.00 0.00 83 1011.2
20260503071413 2 321 0.0 0.0 0.00 0.00 0.00 83 1011.3
20260503070909 2 321 0.0 0.0 0.00 0.00 0.00 84 1011.3
20260503070407 2 321 0.0 0.0 0.00 0.00 0.00 83 1011.6
20260503060332 3 350 0.0 0.0 0.00 0.00 0.00 82 1011.7
20260503054820 2 351 0.0 0.0 0.00 0.00 0.00 83 1011.6
20260503054316 2 351 0.0 0.0 0.00 0.00 0.00 83 1011.6
20260503053814 3 351 0.0 0.0 0.00 0.00 0.00 83 1011.6
20260503053312 2 351 0.0 0.0 0.00 0.00 0.00 82 1011.6
20260503052808 2 352 0.0 0.0 0.00 0.00 0.00 83 1011.7
20260503052306 2 352 0.0 0.0 0.00 0.00 0.00 83 1011.6
20260503051801 2 352 0.0 0.0 0.00 0.00 0.00 82 1011.4
20260503051258 3 352 0.0 0.0 0.00 0.00 0.00 82 1011.7
20260503050754 3 352 0.0 0.0 0.00 0.00 0.00 82 1011.9
20260503050250 3 352 0.0 0.0 0.00 0.00 0.00 82 1011.8
20260503045748 3 352 0.0 0.0 0.00 0.00 0.00 81 1011.7
20260503045246 3 352 0.0 0.0 0.00 0.00 0.00 81 1011.7
20260503044742 3 352 0.0 0.0 0.00 0.00 0.00 80 1011.8
20260503044239 3 352 0.0 0.0 0.00 0.00 0.00 79 1011.9
20260503043737 3 352 0.0 0.0 0.00 0.00 0.00 79 1011.8
20260503043233 3 351 0.0 0.0 0.00 0.00 0.00 78 1011.8
20260503042729 3 351 0.0 0.0 0.00 0.00 0.00 76 1011.8
20260503042226 4 352 0.0 0.0 0.00 0.00 0.00 75 1012.0
20260503041722 4 351 0.0 0.0 0.00 0.00 0.00 74 1011.8
20260503041220 4 351 0.0 0.0 0.00 0.00 0.00 74 1011.7
20260503040717 4 351 0.0 0.0 0.00 0.00 0.00 73 1012.0
20260503040215 5 351 0.0 0.0 0.00 0.00 0.00 73 1011.8
20260503035712 5 351 0.0 0.0 0.00 0.64 0.64 73 1012.1
20260503035209 5 351 0.0 0.0 0.00 0.64 0.64 73 1012.0
20260503034706 5 351 0.0 0.0 0.00 0.64 0.64 73 1011.9
20260503034203 5 351 0.0 0.0 0.00 0.64 0.64 73 1012.0
20260503033700 5 351 0.0 0.0 0.00 0.64 0.64 72 1012.0
20260503033158 5 352 0.0 0.0 0.00 0.64 0.64 73 1012.0
20260503032656 5 352 0.0 0.0 0.00 0.64 0.64 72 1012.1
20260503032154 5 352 0.0 0.0 0.00 0.64 0.64 71 1012.0
20260503031651 5 352 0.0 0.0 0.00 0.64 0.64 72 1012.0
20260503031149 5 352 0.0 0.0 0.00 0.64 0.64 70 1012.0
20260503030645 5 352 0.0 0.0 0.00 0.64 0.64 72 1012.0
20260503030142 5 352 0.0 0.0 0.00 0.64 0.64 71 1012.1
20260503025638 5 353 0.0 0.0 0.00 0.64 0.64 71 1012.3
20260503025137 5 353 0.0 0.0 0.00 0.64 0.64 72 1012.2
20260503024632 5 353 0.0 0.0 0.00 0.64 0.64 69 1012.1
20260503024130 5 353 0.0 0.0 0.00 0.64 0.64 71 1012.1
20260503023627 5 353 0.0 0.0 0.00 0.64 0.64 70 1012.1
20260503023124 5 353 0.0 0.0 0.00 0.64 0.64 68 1012.2
20260503022620 5 353 0.0 0.0 0.00 0.64 0.64 68 1012.3
20260503022114 5 353 0.0 0.0 0.00 0.64 0.64 68 1012.3
20260503021612 5 353 0.0 0.0 0.00 0.64 0.64 67 1012.3
20260503021108 5 353 0.0 0.0 0.00 0.64 0.64 69 1012.3
20260503020605 5 353 0.0 0.0 0.00 0.64 0.64 68 1012.3
20260503015559 5 353 0.0 0.0 0.00 0.64 0.64 69 1012.3
20260503015056 5 353 0.0 0.0 0.00 0.64 0.64 66 1012.2
20260503014552 5 353 0.0 0.0 0.00 0.64 0.64 66 1012.2
20260503014050 5 353 0.0 0.0 0.00 0.64 0.64 64 1012.3
20260503013547 5 353 0.0 0.0 0.00 0.64 0.64 64 1012.2
20260503013045 5 353 0.0 0.0 0.00 0.64 0.64 65 1012.2
20260503012542 5 353 0.0 0.0 0.00 0.64 0.64 60 1012.3
20260503012038 5 353 0.0 0.0 0.00 0.64 0.64 61 1011.9
20260503011535 5 353 0.0 0.0 0.00 0.64 0.64 57 1012.1
20260503011032 5 353 0.0 0.0 0.00 0.64 0.64 59 1012.2
20260503010528 5 353 0.0 0.0 0.00 0.64 0.64 60 1012.3
20260503010026 5 353 0.0 0.0 0.00 0.64 0.64 59 1012.1
20260503005523 5 353 0.0 0.0 0.00 0.64 0.64 60 1012.3
20260503005020 5 353 0.0 0.0 0.00 0.64 0.64 62 1011.9
20260503004516 5 353 0.0 0.0 0.00 0.64 0.64 60 1012.2
20260503004015 5 353 0.0 0.0 0.00 0.64 0.64 58 1012.0
20260503003511 5 353 0.0 0.0 0.00 0.64 0.64 58 1012.0
20260503003009 5 353 0.0 0.0 0.00 0.64 0.64 58 1012.0
20260503002505 5 353 0.0 0.0 0.00 0.64 0.64 58 1012.0
20260503002001 5 353 0.0 0.0 0.00 0.64 0.64 56 1012.1
20260503001458 5 353 0.0 0.0 0.00 0.64 0.64 56 1012.1
20260503000956 6 353 0.0 0.0 0.00 0.64 0.64 54 1011.9
20260503000453 5 353 0.0 0.0 0.00 0.64 0.64 54 1011.9
20260502235950 6 353 0.0 0.0 0.00 0.64 0.64 59 1012.1
20260502235447 6 353 0.0 0.0 0.00 0.64 0.64 55 1011.8
20260502234944 6 353 0.0 0.0 0.00 0.64 0.64 53 1012.0
20260502234440 6 353 0.0 0.0 0.00 0.64 0.64 55 1011.9
20260502233938 6 353 0.0 0.0 0.00 0.64 0.64 54 1011.9
20260502233433 6 353 0.0 0.0 0.00 0.64 0.64 53 1011.7
20260502232930 6 352 1.6 1.6 0.00 0.64 0.64 53 1011.7
20260502232426 6 352 1.6 1.6 0.00 0.64 0.64 54 1011.7
20260502231923 6 353 1.6 4.8 0.00 0.64 0.64 51 1011.9
20260502231421 6 341 3.2 3.2 0.00 0.64 0.64 50 1011.8
20260502230919 6 357 1.6 3.2 0.00 0.64 0.64 50 1011.9
20260502230417 6 328 0.0 1.6 0.00 0.64 0.64 51 1011.9
20260502225915 6 327 1.6 1.6 0.00 0.64 0.64 52 1012.0
20260502225410 6 327 1.6 1.6 0.00 0.64 0.64 56 1011.9